Regional Weather Roundup
Issued by NWS

Home | Current Version | Previous Version | Text Only | Print | Product List | Glossary On
Versions: 1 2 3 4 5 6 7 8 9 10 11 12 13 14 15 16 17 18 19 20 21 22 23 24 25 26 27 28
000
ASUS46 KSEW 281410
RWRWA

WASHINGTON REGIONAL WEATHER ROUNDUP
NATIONAL WEATHER SERVICE SEATTLE WA
700 AM PDT WED SEP 28 2016

NOTE:"FAIR" INDICATES FEW OR NO CLOUDS BELOW 12,000 FEET WITH NO
SIGNIFICANT WEATHER AND/OR OBSTRUCTIONS TO VISIBILITY.

WAZ505-507>509-281500-
SEATTLE, TACOMA, EVERETT, AND VICINITY

CITY           SKY/WX    TMP DP  RH WIND       PRES   REMARKS
EVERETT        CLOUDY    53  49  86 N6        30.12S
BOEING FIELD   MOCLDY    55  48  77 CALM      30.12R
RENTON         CLOUDY    55  51  86 N3        30.12R
SEATAC AIRPORT MOCLDY    53  48  83 NE8       30.12R
JBLM-MCCHORD   MOCLDY    45  45  99 S3        30.11R
PUYALLUP         N/A     46  46 100 CALM      30.12R
BREMERTON      PTCLDY    43  39  87 CALM      30.15S
JBLM-FT LEWIS  MOCLDY    47  45  93 SE2       30.11R
TACOMA NARROWS MOCLDY    53  47  79 CALM      30.12R
$$

WAZ001-503-506-510-514-515-281500-
NORTH INTERIOR

CITY           SKY/WX    TMP DP  RH WIND       PRES   REMARKS
BELLINGHAM     PTCLDY    43  41  93 CALM      30.12S
FRIDAY HARBOR  CLEAR     50  42  74 CALM      30.14R
EASTSOUND      CLEAR     54  48  82 N10       30.13S
PORT ANGELES   CLEAR     45  39  79 SE3       30.13S
EDIZ HOOK      FAIR      49  43  81 CALM      30.13S
PORT TOWNSEND  FAIR      50  45  81 CALM      30.13S
NAS WHIDBEY    MOCLDY    53  46  77 CALM      30.16S
ARLINGTON      CLOUDY    50  41  71 CALM      30.14R
BURLINGTON     CLOUDY    54  50  87 NW9       30.12S
$$

WAZ020-022-039-040-504-511-512-281500-
SOUTHWEST INTERIOR

CITY           SKY/WX    TMP DP  RH WIND       PRES   REMARKS
SHELTON        PTCLDY    42  39  89 CALM      30.09S
OLYMPIA        PTCLDY    45  42  89 CALM      30.11S
CHEHALIS       FAIR      50  46  87 NE5       30.10S
KELSO          PTCLDY    52  45  77 CALM      30.08S
VANCOUVER      PTCLDY    47  41  80 CALM      30.06R
SCAPPOOSE, OR  PTCLDY    57  44  62 N7        30.05R
PORTLAND, OR   PTCLDY    51  42  71 CALM      30.06S
$$

WAZ021-516-517-281500-
WASHINGTON COAST

CITY           SKY/WX    TMP DP  RH WIND       PRES   REMARKS
FORKS          CLEAR     41  38  89 CALM      30.12R
HOQUIAM        CLEAR     46  46 100 NE7       30.11S
ASTORIA, OR    FOG       49  46  90 SE5       30.09R VSB 1/4
$$

WAZ019-023-024-040-518-519-281500-
CASCADE MOUNTAINS AND COLUMBIA GORGE

CITY           SKY/WX    TMP DP  RH WIND       PRES   REMARKS
STAMPEDE PASS  MOCLDY    49  40  71 CALM      30.10S
TROUTDALE, OR  PTCLDY    49  46  90 CALM      30.06R
THE DALLES, OR CLEAR     53  48  83 S5        30.02R
$$

WAZ026-027-041>044-520-521-281500-
EAST SLOPES

CITY           SKY/WX    TMP DP  RH WIND       PRES   REMARKS
OMAK           CLOUDY    55  31  39 NW16      30.11S
WENATCHEE      MOCLDY    54  45  71 W8        30.07R
ELLENSBURG     PTCLDY    47  42  83 NE3       30.07R
YAKIMA         CLEAR     47  40  76 W8        30.05R
$$

WAZ028-034-035-281500-
COLUMBIA BASIN

CITY           SKY/WX    TMP DP  RH WIND       PRES   REMARKS
EPHRATA        CLEAR     58  31  35 NW15G23   30.03S
MOSES LAKE     CLEAR     47  31  53 N5        30.04S
PASCO          CLEAR     47  42  83 CALM      30.02R
HERMISTON, OR  CLEAR     49  43  80 S5        30.01R
$$

WAZ036>038-281500-
NORTHEAST WASHINGTON

CITY           SKY/WX    TMP DP  RH WIND       PRES   REMARKS
SPOKANE GEIGER PTCLDY    53  39  59 NE5       30.05R
SPOKANE FELTS  CLEAR     48  44  86 CALM      30.05S
FAIRCHILD AFB  CLEAR     50  37  60 NE5       30.04S
COEURDALENE,ID CLEAR     51  43  74 NE8       30.06S
DEER PARK      CLEAR     46  38  73 NW8       30.05S
$$

WAZ029>033-281500-
SOUTHEAST WASHINGTON

CITY           SKY/WX    TMP DP  RH WIND       PRES   REMARKS
PULLMAN        CLEAR     53  43  68 CALM      30.04S
LEWISTON, ID   CLEAR     56  45  66 CALM      30.01R
WALLA WALLA    CLEAR     55  40  56 S8        30.02R
PENDLETON, OR  CLEAR     52  42  69 E6        30.02R
$$




USA.gov is the U.S. government's official web portal to all federal, state and local government web resources and services.